Wetterdaten: Samstag, 16.05.2015
Datum Zeit Auen-Temp. Temp gefhlt Luftfeuchte Luftdruck Regen Wind Richtung Richtung Taupunkt Windben
16.05.2015 00:00 10,2 C 10,1 C 90 % 1017,3 hPa 0,0 mm 0,0 km/h (0 Bft) NO 45 8,6 C 0,0 km/h (0 Bft)
16.05.2015 00:05 10,2 C 10,1 C 90 % 1017,3 hPa 0,0 mm 0,0 km/h (0 Bft) N-NO 22 8,6 C 0,0 km/h (0 Bft)
16.05.2015 00:10 10,2 C 10,1 C 90 % 1017,3 hPa 0,0 mm 0,0 km/h (0 Bft) N-NW 337 8,6 C 0,0 km/h (0 Bft)
16.05.2015 00:15 10,2 C 10,1 C 90 % 1017,5 hPa 0,0 mm 0,0 km/h (0 Bft) NW 315 8,6 C 0,0 km/h (0 Bft)
16.05.2015 00:20 10,2 C 10,1 C 90 % 1017,5 hPa 0,0 mm 0,0 km/h (0 Bft) O-NO 67 8,6 C 0,0 km/h (0 Bft)
16.05.2015 00:25 10,2 C 10,1 C 90 % 1017,5 hPa 0,0 mm 0,0 km/h (0 Bft) O-NO 67 8,6 C 0,0 km/h (0 Bft)
16.05.2015 00:30 10,2 C 10,1 C 90 % 1017,5 hPa 0,0 mm 0,0 km/h (0 Bft) O-NO 67 8,6 C 0,0 km/h (0 Bft)
16.05.2015 00:35 10,2 C 10,1 C 90 % 1017,6 hPa 0,0 mm 0,0 km/h (0 Bft) O 90 8,6 C 0,0 km/h (0 Bft)
16.05.2015 00:40 10,2 C 10,1 C 90 % 1017,6 hPa 0,0 mm 0,0 km/h (0 Bft) N-NW 337 8,6 C 0,0 km/h (0 Bft)
16.05.2015 00:45 10,2 C 10,1 C 90 % 1017,6 hPa 0,0 mm 0,0 km/h (0 Bft) N-NW 337 8,6 C 0,0 km/h (0 Bft)
16.05.2015 00:50 10,2 C 10,1 C 90 % 1017,6 hPa 0,0 mm 0,0 km/h (0 Bft) N-NW 337 8,6 C 0,0 km/h (0 Bft)
16.05.2015 00:55 10,2 C 10,1 C 90 % 1017,9 hPa 0,0 mm 0,0 km/h (0 Bft) O 90 8,6 C 0,0 km/h (0 Bft)
16.05.2015 01:00 10,1 C 10,0 C 90 % 1017,9 hPa 0,0 mm 0,0 km/h (0 Bft) O 90 8,5 C 0,0 km/h (0 Bft)
16.05.2015 01:05 10,1 C 10,0 C 91 % 1017,9 hPa 0,0 mm 0,0 km/h (0 Bft) S 180 8,7 C 0,0 km/h (0 Bft)
16.05.2015 01:10 10,1 C 10,0 C 91 % 1017,9 hPa 0,0 mm 0,0 km/h (0 Bft) SW 225 8,7 C 0,0 km/h (0 Bft)
16.05.2015 01:15 10,1 C 10,0 C 91 % 1017,9 hPa 0,0 mm 0,0 km/h (0 Bft) S 180 8,7 C 0,0 km/h (0 Bft)
16.05.2015 01:20 10,1 C 10,0 C 91 % 1017,9 hPa 0,0 mm 0,0 km/h (0 Bft) S-SW 202 8,7 C 0,0 km/h (0 Bft)
16.05.2015 01:25 10,1 C 10,0 C 91 % 1017,9 hPa 0,0 mm 0,0 km/h (0 Bft) SW 225 8,7 C 3,4 km/h (1 Bft)
16.05.2015 01:30 10,1 C 10,0 C 91 % 1017,9 hPa 0,0 mm 0,5 km/h (0 Bft) SO 135 8,7 C 0,0 km/h (0 Bft)
16.05.2015 01:35 10,1 C 10,0 C 91 % 1018,1 hPa 0,0 mm 0,5 km/h (0 Bft) S-SO 157 8,7 C 0,0 km/h (0 Bft)
16.05.2015 01:40 10,1 C 10,0 C 91 % 1018,1 hPa 0,0 mm 0,0 km/h (0 Bft) SO 135 8,7 C 0,0 km/h (0 Bft)
16.05.2015 01:45 10,1 C 10,0 C 91 % 1018,1 hPa 0,0 mm 0,0 km/h (0 Bft) S-SO 157 8,7 C 0,0 km/h (0 Bft)
16.05.2015 01:50 10,1 C 10,0 C 91 % 1018,1 hPa 0,0 mm 0,3 km/h (0 Bft) S 180 8,7 C 3,6 km/h (1 Bft)
16.05.2015 01:55 10,1 C 10,0 C 91 % 1018,2 hPa 0,0 mm 0,3 km/h (0 Bft) S 180 8,7 C 0,0 km/h (0 Bft)
16.05.2015 02:00 10,1 C 10,0 C 91 % 1018,2 hPa 0,0 mm 0,0 km/h (0 Bft) S-SO 157 8,7 C 0,0 km/h (0 Bft)
16.05.2015 02:05 10,1 C 10,0 C 91 % 1018,2 hPa 0,0 mm 0,0 km/h (0 Bft) S 180 8,7 C 0,0 km/h (0 Bft)
16.05.2015 02:10 10,1 C 10,0 C 91 % 1018,2 hPa 0,0 mm 0,0 km/h (0 Bft) S 180 8,7 C 0,0 km/h (0 Bft)
16.05.2015 02:15 10,0 C 10,0 C 91 % 1018,0 hPa 0,0 mm 0,0 km/h (0 Bft) SW 225 8,6 C 0,0 km/h (0 Bft)
16.05.2015 02:20 10,1 C 10,0 C 91 % 1018,0 hPa 0,0 mm 0,0 km/h (0 Bft) S-SO 157 8,7 C 0,0 km/h (0 Bft)
16.05.2015 02:25 10,1 C 10,0 C 91 % 1018,0 hPa 0,0 mm 0,0 km/h (0 Bft) S 180 8,7 C 0,0 km/h (0 Bft)
16.05.2015 02:30 10,1 C 10,0 C 91 % 1018,0 hPa 0,0 mm 0,0 km/h (0 Bft) S-SO 157 8,7 C 0,0 km/h (0 Bft)
16.05.2015 02:35 10,1 C 10,0 C 91 % 1017,9 hPa 0,0 mm 0,0 km/h (0 Bft) S-SO 157 8,7 C 0,0 km/h (0 Bft)
16.05.2015 02:40 10,0 C 10,0 C 91 % 1017,9 hPa 0,0 mm 0,0 km/h (0 Bft) SO 135 8,6 C 0,0 km/h (0 Bft)
16.05.2015 02:45 10,0 C 9,9 C 91 % 1017,9 hPa 0,0 mm 0,0 km/h (0 Bft) S-SW 202 8,6 C 0,0 km/h (0 Bft)
16.05.2015 02:50 10,0 C 9,9 C 91 % 1017,9 hPa 0,0 mm 0,3 km/h (0 Bft) S-SW 202 8,6 C 3,9 km/h (1 Bft)
16.05.2015 02:55 10,0 C 9,9 C 91 % 1017,9 hPa 0,0 mm 0,8 km/h (0 Bft) S-SO 157 8,6 C 0,0 km/h (0 Bft)
16.05.2015 03:00 10,0 C 9,9 C 91 % 1017,9 hPa 0,0 mm 1,0 km/h (0 Bft) SO 135 8,6 C 0,0 km/h (0 Bft)
16.05.2015 03:05 10,0 C 9,9 C 91 % 1017,9 hPa 0,0 mm 0,5 km/h (0 Bft) S 180 8,6 C 0,0 km/h (0 Bft)
16.05.2015 03:10 9,9 C 9,9 C 88 % 1017,9 hPa 0,0 mm 0,3 km/h (0 Bft) SO 135 8,0 C 0,0 km/h (0 Bft)
16.05.2015 03:15 9,9 C 9,9 C 88 % 1017,9 hPa 0,0 mm 0,3 km/h (0 Bft) S-SO 157 8,0 C 0,0 km/h (0 Bft)
16.05.2015 03:20 9,9 C 9,8 C 91 % 1017,9 hPa 0,0 mm 0,0 km/h (0 Bft) SO 135 8,5 C 0,0 km/h (0 Bft)
16.05.2015 03:25 9,9 C 9,8 C 91 % 1017,9 hPa 0,0 mm 0,0 km/h (0 Bft) SO 135 8,5 C 0,0 km/h (0 Bft)
16.05.2015 03:30 9,9 C 9,8 C 91 % 1017,9 hPa 0,0 mm 0,0 km/h (0 Bft) S-SO 157 8,5 C 0,0 km/h (0 Bft)
16.05.2015 03:35 9,9 C 9,8 C 91 % 1018,0 hPa 0,0 mm 0,0 km/h (0 Bft) S 180 8,5 C 0,0 km/h (0 Bft)
16.05.2015 03:40 9,9 C 9,8 C 92 % 1018,0 hPa 0,0 mm 0,0 km/h (0 Bft) S 180 8,7 C 0,0 km/h (0 Bft)
16.05.2015 03:45 9,9 C 9,8 C 92 % 1018,0 hPa 0,0 mm 0,0 km/h (0 Bft) S 180 8,7 C 0,0 km/h (0 Bft)
16.05.2015 03:50 9,9 C 9,8 C 91 % 1018,0 hPa 0,0 mm 0,0 km/h (0 Bft) S 180 8,5 C 0,0 km/h (0 Bft)
16.05.2015 03:55 9,8 C 9,8 C 88 % 1018,0 hPa 0,0 mm 0,0 km/h (0 Bft) S 180 7,9 C 0,0 km/h (0 Bft)
16.05.2015 04:00 9,8 C 9,8 C 88 % 1018,0 hPa 0,0 mm 0,0 km/h (0 Bft) S-SW 202 7,9 C 0,0 km/h (0 Bft)
16.05.2015 04:05 9,8 C 9,8 C 88 % 1018,0 hPa 0,0 mm 0,0 km/h (0 Bft) S-SW 202 7,9 C 0,0 km/h (0 Bft)
16.05.2015 04:10 9,8 C 9,8 C 88 % 1018,0 hPa 0,0 mm 0,0 km/h (0 Bft) S-SO 157 7,9 C 0,0 km/h (0 Bft)
16.05.2015 04:15 9,8 C 9,8 C 88 % 1017,9 hPa 0,0 mm 0,0 km/h (0 Bft) S-SO 157 7,9 C 0,0 km/h (0 Bft)
16.05.2015 04:20 9,8 C 9,7 C 91 % 1017,9 hPa 0,0 mm 0,0 km/h (0 Bft) S-SO 157 8,4 C 0,0 km/h (0 Bft)
16.05.2015 04:25 9,8 C 9,7 C 91 % 1017,9 hPa 0,0 mm 0,0 km/h (0 Bft) S 180 8,4 C 0,0 km/h (0 Bft)
16.05.2015 04:30 9,8 C 9,7 C 91 % 1017,9 hPa 0,0 mm 0,0 km/h (0 Bft) S 180 8,4 C 0,0 km/h (0 Bft)
16.05.2015 04:35 9,8 C 9,7 C 91 % 1018,2 hPa 0,0 mm 0,0 km/h (0 Bft) NW 315 8,4 C 0,0 km/h (0 Bft)
16.05.2015 04:40 9,8 C 9,7 C 91 % 1018,2 hPa 0,0 mm 0,0 km/h (0 Bft) S 180 8,4 C 0,0 km/h (0 Bft)
16.05.2015 04:45 9,8 C 9,7 C 91 % 1018,2 hPa 0,0 mm 0,0 km/h (0 Bft) S 180 8,4 C 0,0 km/h (0 Bft)
16.05.2015 04:50 9,8 C 9,7 C 91 % 1018,2 hPa 0,0 mm 0,0 km/h (0 Bft) S 180 8,4 C 0,0 km/h (0 Bft)
16.05.2015 04:55 9,8 C 9,7 C 91 % 1018,4 hPa 0,0 mm 0,0 km/h (0 Bft) S 180 8,4 C 0,0 km/h (0 Bft)
16.05.2015 05:00 9,8 C 9,7 C 91 % 1018,4 hPa 0,0 mm 0,0 km/h (0 Bft) SW 225 8,4 C 0,0 km/h (0 Bft)
16.05.2015 05:05 9,8 C 9,7 C 91 % 1018,4 hPa 0,0 mm 0,0 km/h (0 Bft) W-NW 292 8,4 C 0,0 km/h (0 Bft)
16.05.2015 05:10 9,8 C 9,7 C 91 % 1018,4 hPa 0,0 mm 0,0 km/h (0 Bft) W 270 8,4 C 0,0 km/h (0 Bft)
16.05.2015 05:15 9,8 C 9,7 C 91 % 1018,5 hPa 0,0 mm 0,0 km/h (0 Bft) W-SW 247 8,4 C 0,0 km/h (0 Bft)
16.05.2015 05:20 9,8 C 9,7 C 91 % 1018,5 hPa 0,0 mm 0,0 km/h (0 Bft) SW 225 8,4 C 0,0 km/h (0 Bft)
16.05.2015 05:25 9,8 C 9,7 C 91 % 1018,5 hPa 0,0 mm 0,0 km/h (0 Bft) W-NW 292 8,4 C 0,0 km/h (0 Bft)
16.05.2015 05:30 9,8 C 9,8 C 89 % 1018,5 hPa 0,0 mm 0,0 km/h (0 Bft) S-SW 202 8,1 C 0,0 km/h (0 Bft)
16.05.2015 05:35 9,8 C 9,8 C 89 % 1018,7 hPa 0,0 mm 0,0 km/h (0 Bft) S 180 8,1 C 0,0 km/h (0 Bft)
16.05.2015 05:40 9,8 C 9,8 C 89 % 1018,7 hPa 0,0 mm 0,0 km/h (0 Bft) S-SW 202 8,1 C 0,0 km/h (0 Bft)
16.05.2015 05:45 9,8 C 9,8 C 89 % 1018,7 hPa 0,0 mm 0,0 km/h (0 Bft) SW 225 8,1 C 0,0 km/h (0 Bft)
16.05.2015 05:50 9,8 C 9,8 C 89 % 1018,7 hPa 0,0 mm 0,0 km/h (0 Bft) W-NW 292 8,1 C 0,0 km/h (0 Bft)
16.05.2015 05:55 9,8 C 9,8 C 89 % 1019,1 hPa 0,0 mm 0,0 km/h (0 Bft) W 270 8,1 C 0,0 km/h (0 Bft)
16.05.2015 06:00 9,8 C 9,8 C 89 % 1019,1 hPa 0,0 mm 0,0 km/h (0 Bft) W 270 8,1 C 0,0 km/h (0 Bft)
16.05.2015 06:05 9,8 C 9,8 C 89 % 1019,1 hPa 0,0 mm 0,0 km/h (0 Bft) W 270 8,1 C 0,0 km/h (0 Bft)
16.05.2015 06:10 9,8 C 9,8 C 89 % 1019,1 hPa 0,0 mm 0,5 km/h (0 Bft) SW 225 8,1 C 4,4 km/h (1 Bft)
16.05.2015 06:15 9,8 C 9,8 C 89 % 1019,3 hPa 0,0 mm 0,8 km/h (0 Bft) S 180 8,1 C 0,0 km/h (0 Bft)
16.05.2015 06:20 9,8 C 9,8 C 89 % 1019,3 hPa 0,0 mm 0,5 km/h (0 Bft) S 180 8,1 C 0,0 km/h (0 Bft)
16.05.2015 06:25 9,8 C 9,8 C 89 % 1019,3 hPa 0,0 mm 0,0 km/h (0 Bft) S 180 8,1 C 0,0 km/h (0 Bft)
16.05.2015 06:30 9,9 C 9,9 C 89 % 1019,3 hPa 0,0 mm 0,0 km/h (0 Bft) S-SO 157 8,2 C 0,0 km/h (0 Bft)
16.05.2015 06:35 10,0 C 10,0 C 88 % 1019,6 hPa 0,0 mm 0,0 km/h (0 Bft) SW 225 8,1 C 0,0 km/h (0 Bft)
16.05.2015 06:40 10,0 C 10,1 C 88 % 1019,6 hPa 0,0 mm 0,0 km/h (0 Bft) S-SO 157 8,1 C 0,0 km/h (0 Bft)
16.05.2015 06:45 10,1 C 10,2 C 88 % 1019,6 hPa 0,0 mm 0,0 km/h (0 Bft) S-SO 157 8,2 C 0,0 km/h (0 Bft)
16.05.2015 06:50 10,2 C 10,3 C 88 % 1019,6 hPa 0,0 mm 0,0 km/h (0 Bft) S-SW 202 8,3 C 0,0 km/h (0 Bft)
16.05.2015 06:55 10,2 C 10,4 C 88 % 1019,6 hPa 0,0 mm 0,0 km/h (0 Bft) W 270 8,3 C 0,0 km/h (0 Bft)
16.05.2015 07:00 10,3 C 10,6 C 89 % 1019,6 hPa 0,0 mm 0,0 km/h (0 Bft) S 180 8,6 C 0,0 km/h (0 Bft)
16.05.2015 07:05 10,3 C 10,7 C 89 % 1019,6 hPa 0,0 mm 0,0 km/h (0 Bft) SW 225 8,6 C 0,0 km/h (0 Bft)
16.05.2015 07:10 10,4 C 10,9 C 88 % 1019,6 hPa 0,0 mm 0,0 km/h (0 Bft) W 270 8,5 C 0,0 km/h (0 Bft)
16.05.2015 07:15 10,5 C 11,1 C 88 % 1019,9 hPa 0,0 mm 0,0 km/h (0 Bft) NW 315 8,6 C 0,0 km/h (0 Bft)
16.05.2015 07:20 10,7 C 11,2 C 88 % 1019,9 hPa 0,0 mm 0,0 km/h (0 Bft) NW 315 8,8 C 0,0 km/h (0 Bft)
16.05.2015 07:25 10,7 C 11,3 C 88 % 1019,9 hPa 0,0 mm 0,0 km/h (0 Bft) NW 315 8,8 C 0,0 km/h (0 Bft)
16.05.2015 07:30 10,7 C 11,4 C 88 % 1019,9 hPa 0,0 mm 0,3 km/h (0 Bft) W 270 8,8 C 2,6 km/h (1 Bft)
16.05.2015 07:35 10,7 C 11,3 C 88 % 1020,0 hPa 0,0 mm 0,3 km/h (0 Bft) W-NW 292 8,8 C 0,0 km/h (0 Bft)
16.05.2015 07:40 10,8 C 11,5 C 88 % 1020,0 hPa 0,0 mm 0,3 km/h (0 Bft) NW 315 8,9 C 3,9 km/h (1 Bft)
16.05.2015 07:45 10,9 C 11,5 C 88 % 1020,0 hPa 0,0 mm 1,0 km/h (0 Bft) NW 315 9,0 C 0,0 km/h (0 Bft)
16.05.2015 07:50 10,9 C 11,5 C 88 % 1020,0 hPa 0,0 mm 1,0 km/h (0 Bft) NW 315 9,0 C 0,0 km/h (0 Bft)
16.05.2015 07:55 11,0 C 11,7 C 88 % 1020,3 hPa 0,0 mm 0,3 km/h (0 Bft) W-NW 292 9,1 C 0,0 km/h (0 Bft)
16.05.2015 08:00 11,1 C 12,0 C 88 % 1020,3 hPa 0,0 mm 0,0 km/h (0 Bft) NW 315 9,2 C 0,0 km/h (0 Bft)
16.05.2015 08:05 11,1 C 12,0 C 88 % 1020,3 hPa 0,0 mm 0,3 km/h (0 Bft) NW 315 9,2 C 4,7 km/h (1 Bft)
16.05.2015 08:10 11,1 C 12,0 C 88 % 1020,3 hPa 0,0 mm 0,5 km/h (0 Bft) NW 315 9,2 C 0,0 km/h (0 Bft)
16.05.2015 08:15 11,1 C 11,8 C 88 % 1020,7 hPa 0,0 mm 0,8 km/h (0 Bft) W 270 9,2 C 4,9 km/h (1 Bft)
16.05.2015 08:20 11,1 C 11,7 C 88 % 1020,7 hPa 0,0 mm 1,6 km/h (1 Bft) NW 315 9,2 C 3,6 km/h (1 Bft)
16.05.2015 08:25 11,1 C 11,6 C 88 % 1020,7 hPa 0,0 mm 1,6 km/h (1 Bft) W-SW 247 9,2 C 0,0 km/h (0 Bft)
16.05.2015 08:30 11,1 C 11,8 C 88 % 1020,7 hPa 0,0 mm 0,3 km/h (0 Bft) SW 225 9,2 C 0,0 km/h (0 Bft)
16.05.2015 08:35 11,3 C 12,1 C 88 % 1020,7 hPa 0,0 mm 0,0 km/h (0 Bft) NW 315 9,4 C 0,0 km/h (0 Bft)
16.05.2015 08:40 11,3 C 12,4 C 88 % 1020,7 hPa 0,0 mm 0,5 km/h (0 Bft) NW 315 9,4 C 4,1 km/h (1 Bft)
16.05.2015 08:45 11,4 C 12,5 C 87 % 1020,7 hPa 0,0 mm 1,6 km/h (1 Bft) N 360 9,3 C 3,6 km/h (1 Bft)
16.05.2015 08:50 11,6 C 12,8 C 87 % 1020,7 hPa 0,0 mm 2,3 km/h (1 Bft) W-SW 247 9,5 C 6,0 km/h (2 Bft)
16.05.2015 08:55 11,6 C 13,1 C 87 % 1020,9 hPa 0,0 mm 2,1 km/h (1 Bft) W-SW 247 9,5 C 4,7 km/h (1 Bft)
16.05.2015 09:00 11,7 C 13,3 C 87 % 1020,9 hPa 0,0 mm 1,6 km/h (1 Bft) W-SW 247 9,6 C 6,7 km/h (2 Bft)
16.05.2015 09:05 11,9 C 13,6 C 87 % 1020,9 hPa 0,0 mm 1,6 km/h (1 Bft) NW 315 9,8 C 0,0 km/h (0 Bft)
16.05.2015 09:10 12,0 C 13,8 C 86 % 1020,9 hPa 0,0 mm 1,3 km/h (1 Bft) N-NW 337 9,7 C 4,9 km/h (1 Bft)
16.05.2015 09:15 12,0 C 13,6 C 86 % 1021,1 hPa 0,0 mm 1,6 km/h (1 Bft) W-NW 292 9,7 C 0,0 km/h (0 Bft)
16.05.2015 09:20 12,1 C 13,5 C 86 % 1021,1 hPa 0,0 mm 2,1 km/h (1 Bft) NW 315 9,8 C 7,3 km/h (2 Bft)
16.05.2015 09:25 12,1 C 13,6 C 86 % 1021,1 hPa 0,0 mm 2,1 km/h (1 Bft) N-NW 337 9,8 C 4,7 km/h (1 Bft)
16.05.2015 09:30 12,1 C 13,6 C 86 % 1021,1 hPa 0,0 mm 2,1 km/h (1 Bft) W 270 9,8 C 8,5 km/h (2 Bft)
16.05.2015 09:35 12,1 C 13,7 C 86 % 1021,1 hPa 0,0 mm 3,1 km/h (1 Bft) W-NW 292 9,8 C 4,4 km/h (1 Bft)
16.05.2015 09:40 12,3 C 13,8 C 86 % 1021,1 hPa 0,0 mm 2,3 km/h (1 Bft) N-NO 22 10,0 C 0,0 km/h (0 Bft)
16.05.2015 09:45 12,3 C 14,0 C 85 % 1021,1 hPa 0,0 mm 1,6 km/h (1 Bft) N-NO 22 9,9 C 0,0 km/h (0 Bft)
16.05.2015 09:50 12,4 C 14,2 C 85 % 1021,1 hPa 0,0 mm 1,3 km/h (1 Bft) N-NO 22 9,9 C 0,0 km/h (0 Bft)
16.05.2015 09:55 12,4 C 14,2 C 85 % 1021,2 hPa 0,0 mm 0,5 km/h (0 Bft) N-NW 337 9,9 C 0,0 km/h (0 Bft)
16.05.2015 10:00 12,4 C 14,2 C 85 % 1021,2 hPa 0,0 mm 0,8 km/h (0 Bft) W-NW 292 9,9 C 0,0 km/h (0 Bft)
16.05.2015 10:05 12,4 C 14,2 C 84 % 1021,2 hPa 0,0 mm 1,8 km/h (1 Bft) NW 315 9,8 C 4,4 km/h (1 Bft)
16.05.2015 10:10 12,4 C 13,9 C 84 % 1021,2 hPa 0,0 mm 2,1 km/h (1 Bft) NW 315 9,8 C 0,0 km/h (0 Bft)
16.05.2015 10:15 12,4 C 13,8 C 84 % 1021,4 hPa 0,0 mm 1,3 km/h (1 Bft) NW 315 9,8 C 0,0 km/h (0 Bft)
16.05.2015 10:20 12,3 C 13,9 C 84 % 1021,4 hPa 0,0 mm 0,0 km/h (0 Bft) W-SW 247 9,7 C 0,0 km/h (0 Bft)
16.05.2015 10:25 12,4 C 13,9 C 84 % 1021,4 hPa 0,0 mm 0,3 km/h (0 Bft) W 270 9,8 C 0,0 km/h (0 Bft)
16.05.2015 10:30 12,4 C 13,9 C 84 % 1021,4 hPa 0,0 mm 0,5 km/h (0 Bft) W 270 9,8 C 0,0 km/h (0 Bft)
16.05.2015 10:35 12,3 C 14,0 C 83 % 1021,6 hPa 0,0 mm 0,0 km/h (0 Bft) W 270 9,5 C 0,0 km/h (0 Bft)
16.05.2015 10:40 12,5 C 14,0 C 84 % 1021,6 hPa 0,0 mm 0,5 km/h (0 Bft) W 270 9,9 C 0,0 km/h (0 Bft)
16.05.2015 10:45 12,5 C 14,0 C 84 % 1021,6 hPa 0,0 mm 0,5 km/h (0 Bft) NW 315 9,9 C 0,0 km/h (0 Bft)
16.05.2015 10:50 12,5 C 14,1 C 84 % 1021,6 hPa 0,0 mm 1,3 km/h (1 Bft) W 270 9,9 C 4,7 km/h (1 Bft)
16.05.2015 10:55 12,5 C 14,1 C 84 % 1021,7 hPa 0,0 mm 1,8 km/h (1 Bft) NW 315 9,9 C 0,0 km/h (0 Bft)
16.05.2015 11:00 12,6 C 14,2 C 84 % 1021,7 hPa 0,0 mm 2,1 km/h (1 Bft) W 270 10,0 C 5,4 km/h (1 Bft)
16.05.2015 11:05 12,6 C 14,2 C 84 % 1021,7 hPa 0,0 mm 1,6 km/h (1 Bft) W-SW 247 10,0 C 0,0 km/h (0 Bft)
16.05.2015 11:10 12,7 C 14,5 C 84 % 1021,7 hPa 0,0 mm 1,0 km/h (0 Bft) W-SW 247 10,1 C 0,0 km/h (0 Bft)
16.05.2015 11:15 12,7 C 14,5 C 84 % 1021,8 hPa 0,0 mm 0,5 km/h (0 Bft) W 270 10,1 C 0,0 km/h (0 Bft)
16.05.2015 11:20 12,8 C 14,6 C 84 % 1021,8 hPa 0,0 mm 1,0 km/h (0 Bft) NO 45 10,2 C 0,0 km/h (0 Bft)
16.05.2015 11:25 12,9 C 14,7 C 84 % 1021,8 hPa 0,0 mm 1,0 km/h (0 Bft) W 270 10,3 C 4,1 km/h (1 Bft)
16.05.2015 11:30 12,9 C 14,9 C 84 % 1021,8 hPa 0,0 mm 1,6 km/h (1 Bft) S 180 10,3 C 4,9 km/h (1 Bft)
16.05.2015 11:35 13,0 C 14,9 C 83 % 1021,9 hPa 0,0 mm 1,8 km/h (1 Bft) W-SW 247 10,2 C 0,0 km/h (0 Bft)
16.05.2015 11:40 13,0 C 14,8 C 83 % 1021,9 hPa 0,0 mm 2,1 km/h (1 Bft) SW 225 10,2 C 9,3 km/h (2 Bft)
16.05.2015 11:45 13,0 C 14,9 C 82 % 1021,9 hPa 0,0 mm 2,6 km/h (1 Bft) W-SW 247 10,0 C 0,0 km/h (0 Bft)
16.05.2015 11:50 13,1 C 15,2 C 82 % 1021,9 hPa 0,0 mm 3,1 km/h (1 Bft) N-NO 22 10,1 C 3,6 km/h (1 Bft)
16.05.2015 11:55 13,2 C 15,5 C 82 % 1021,9 hPa 0,0 mm 3,1 km/h (1 Bft) NW 315 10,2 C 0,0 km/h (0 Bft)
16.05.2015 12:00 13,4 C 16,2 C 81 % 1021,9 hPa 0,0 mm 4,1 km/h (1 Bft) N-NW 337 10,2 C 11,4 km/h (2 Bft)
16.05.2015 12:05 13,6 C 16,5 C 81 % 1021,9 hPa 0,0 mm 4,9 km/h (1 Bft) W 270 10,4 C 8,5 km/h (2 Bft)
16.05.2015 12:10 14,0 C 17,4 C 80 % 1021,9 hPa 0,0 mm 6,7 km/h (2 Bft) W-NW 292 10,6 C 19,9 km/h (4 Bft)
16.05.2015 12:15 14,1 C 17,6 C 80 % 1022,1 hPa 0,0 mm 7,5 km/h (2 Bft) W-NW 292 10,7 C 8,3 km/h (2 Bft)
16.05.2015 12:20 14,3 C 18,4 C 79 % 1022,1 hPa 0,0 mm 7,5 km/h (2 Bft) N-NW 337 10,7 C 7,3 km/h (2 Bft)
16.05.2015 12:25 14,3 C 18,6 C 78 % 1022,1 hPa 0,0 mm 5,4 km/h (1 Bft) NW 315 10,5 C 0,0 km/h (0 Bft)
16.05.2015 12:30 14,6 C 19,1 C 78 % 1022,1 hPa 0,0 mm 4,9 km/h (1 Bft) W 270 10,8 C 6,0 km/h (2 Bft)
16.05.2015 12:35 14,8 C 19,6 C 77 % 1022,2 hPa 0,0 mm 3,9 km/h (1 Bft) W-SW 247 10,8 C 4,4 km/h (1 Bft)
16.05.2015 12:40 14,5 C 19,7 C 76 % 1022,2 hPa 0,0 mm 5,2 km/h (1 Bft) S 180 10,3 C 8,3 km/h (2 Bft)
16.05.2015 12:45 14,6 C 19,9 C 75 % 1022,2 hPa 0,0 mm 5,4 km/h (1 Bft) NW 315 10,2 C 6,2 km/h (2 Bft)
16.05.2015 12:50 15,1 C 20,6 C 74 % 1022,2 hPa 0,0 mm 2,8 km/h (1 Bft) W 270 10,5 C 3,1 km/h (1 Bft)
16.05.2015 12:55 15,2 C 21,0 C 74 % 1022,2 hPa 0,0 mm 2,6 km/h (1 Bft) W-SW 247 10,6 C 7,3 km/h (2 Bft)
16.05.2015 13:00 15,4 C 21,7 C 73 % 1022,2 hPa 0,0 mm 3,6 km/h (1 Bft) S 180 10,6 C 4,1 km/h (1 Bft)
16.05.2015 13:05 15,3 C 21,2 C 73 % 1022,2 hPa 0,0 mm 4,1 km/h (1 Bft) W-NW 292 10,5 C 4,7 km/h (1 Bft)
16.05.2015 13:10 14,8 C 20,6 C 72 % 1022,2 hPa 0,0 mm 4,1 km/h (1 Bft) SW 225 9,8 C 0,0 km/h (0 Bft)
16.05.2015 13:15 14,9 C 20,4 C 73 % 1022,2 hPa 0,0 mm 2,8 km/h (1 Bft) W-NW 292 10,1 C 5,2 km/h (1 Bft)
16.05.2015 13:20 15,9 C 21,1 C 73 % 1022,2 hPa 0,0 mm 3,4 km/h (1 Bft) N-NW 337 11,1 C 0,0 km/h (0 Bft)
16.05.2015 13:25 16,0 C 22,1 C 70 % 1022,2 hPa 0,0 mm 3,9 km/h (1 Bft) W-SW 247 10,5 C 8,3 km/h (2 Bft)
16.05.2015 13:30 16,2 C 23,0 C 70 % 1022,2 hPa 0,0 mm 2,8 km/h (1 Bft) NW 315 10,7 C 11,7 km/h (2 Bft)
16.05.2015 13:35 16,9 C 23,9 C 69 % 1022,2 hPa 0,0 mm 4,1 km/h (1 Bft) NW 315 11,2 C 8,3 km/h (2 Bft)
16.05.2015 13:40 16,8 C 23,1 C 69 % 1022,2 hPa 0,0 mm 5,4 km/h (1 Bft) N-NW 337 11,1 C 3,4 km/h (1 Bft)
16.05.2015 13:45 16,7 C 22,9 C 69 % 1022,2 hPa 0,0 mm 3,9 km/h (1 Bft) W-NW 292 11,0 C 7,0 km/h (2 Bft)
16.05.2015 13:50 16,5 C 22,1 C 69 % 1022,2 hPa 0,0 mm 4,1 km/h (1 Bft) S 180 10,8 C 4,7 km/h (1 Bft)
16.05.2015 13:55 16,7 C 22,0 C 69 % 1022,1 hPa 0,0 mm 4,4 km/h (1 Bft) W-NW 292 11,0 C 4,9 km/h (1 Bft)
16.05.2015 14:00 16,8 C 22,2 C 66 % 1022,1 hPa 0,0 mm 5,4 km/h (1 Bft) W-NW 292 10,4 C 8,8 km/h (2 Bft)
16.05.2015 14:05 17,1 C 22,4 C 66 % 1022,1 hPa 0,0 mm 6,5 km/h (2 Bft) W-SW 247 10,7 C 5,4 km/h (1 Bft)
16.05.2015 14:10 17,0 C 22,5 C 66 % 1022,1 hPa 0,0 mm 3,6 km/h (1 Bft) NO 45 10,6 C 7,8 km/h (2 Bft)
16.05.2015 14:15 16,7 C 22,5 C 65 % 1022,2 hPa 0,0 mm 2,8 km/h (1 Bft) NO 45 10,1 C 5,4 km/h (1 Bft)
16.05.2015 14:20 17,5 C 22,8 C 66 % 1022,2 hPa 0,0 mm 5,2 km/h (1 Bft) NO 45 11,1 C 3,6 km/h (1 Bft)
16.05.2015 14:25 17,9 C 23,6 C 66 % 1022,2 hPa 0,0 mm 5,2 km/h (1 Bft) NW 315 11,5 C 10,9 km/h (2 Bft)
16.05.2015 14:30 17,8 C 23,0 C 65 % 1022,2 hPa 0,0 mm 5,7 km/h (1 Bft) NW 315 11,1 C 12,2 km/h (2 Bft)
16.05.2015 14:35 17,9 C 22,7 C 65 % 1022,0 hPa 0,0 mm 7,8 km/h (2 Bft) N-NW 337 11,2 C 7,8 km/h (2 Bft)
16.05.2015 14:40 17,6 C 21,9 C 64 % 1022,0 hPa 0,0 mm 7,5 km/h (2 Bft) W 270 10,7 C 7,3 km/h (2 Bft)
16.05.2015 14:45 18,2 C 22,3 C 65 % 1022,0 hPa 0,0 mm 6,2 km/h (2 Bft) NW 315 11,5 C 5,2 km/h (1 Bft)
16.05.2015 14:50 17,9 C 22,9 C 63 % 1022,0 hPa 0,0 mm 6,7 km/h (2 Bft) W-NW 292 10,8 C 7,0 km/h (2 Bft)
16.05.2015 14:55 18,0 C 22,1 C 63 % 1022,1 hPa 0,0 mm 8,0 km/h (2 Bft) NW 315 10,8 C 23,3 km/h (4 Bft)
16.05.2015 15:00 17,9 C 22,1 C 63 % 1022,1 hPa 0,0 mm 8,0 km/h (2 Bft) W-SW 247 10,8 C 5,4 km/h (1 Bft)
16.05.2015 15:05 17,7 C 21,7 C 62 % 1022,1 hPa 0,0 mm 8,8 km/h (2 Bft) NW 315 10,3 C 14,8 km/h (3 Bft)
16.05.2015 15:10 17,5 C 20,8 C 62 % 1022,1 hPa 0,0 mm 9,6 km/h (2 Bft) NW 315 10,1 C 14,5 km/h (3 Bft)
16.05.2015 15:15 17,7 C 20,9 C 62 % 1022,1 hPa 0,0 mm 9,3 km/h (2 Bft) W-NW 292 10,3 C 11,7 km/h (2 Bft)
16.05.2015 15:20 18,1 C 21,7 C 62 % 1022,1 hPa 0,0 mm 9,1 km/h (2 Bft) NW 315 10,7 C 6,7 km/h (2 Bft)
16.05.2015 15:25 18,4 C 22,3 C 62 % 1022,1 hPa 0,0 mm 8,8 km/h (2 Bft) W-SW 247 11,0 C 11,4 km/h (2 Bft)
16.05.2015 15:30 18,6 C 22,7 C 59 % 1022,1 hPa 0,0 mm 9,6 km/h (2 Bft) W-NW 292 10,4 C 23,6 km/h (4 Bft)
16.05.2015 15:35 18,1 C 22,5 C 59 % 1021,9 hPa 0,0 mm 10,4 km/h (2 Bft) W-NW 292 10,0 C 12,2 km/h (2 Bft)
16.05.2015 15:40 17,8 C 21,4 C 59 % 1021,9 hPa 0,0 mm 10,4 km/h (2 Bft) W-NW 292 9,7 C 11,7 km/h (2 Bft)
16.05.2015 15:45 18,0 C 21,3 C 60 % 1021,9 hPa 0,0 mm 8,8 km/h (2 Bft) S-SW 202 10,1 C 5,7 km/h (1 Bft)
16.05.2015 15:50 18,1 C 21,9 C 60 % 1021,9 hPa 0,0 mm 6,7 km/h (2 Bft) W-NW 292 10,2 C 16,8 km/h (3 Bft)
16.05.2015 15:55 18,1 C 22,2 C 59 % 1022,0 hPa 0,0 mm 6,2 km/h (2 Bft) N-NW 337 10,0 C 7,0 km/h (2 Bft)
16.05.2015 16:00 17,9 C 21,8 C 60 % 1022,0 hPa 0,0 mm 7,8 km/h (2 Bft) W 270 10,0 C 8,3 km/h (2 Bft)
16.05.2015 16:05 17,7 C 22,4 C 60 % 1022,0 hPa 0,0 mm 8,0 km/h (2 Bft) W-NW 292 9,8 C 12,4 km/h (3 Bft)
16.05.2015 16:10 17,5 C 22,7 C 60 % 1022,0 hPa 0,0 mm 8,5 km/h (2 Bft) W 270 9,6 C 16,1 km/h (3 Bft)
16.05.2015 16:15 17,3 C 22,5 C 61 % 1021,9 hPa 0,0 mm 8,5 km/h (2 Bft) O-SO 112 9,7 C 8,0 km/h (2 Bft)
16.05.2015 16:20 17,3 C 22,4 C 61 % 1021,9 hPa 0,0 mm 8,5 km/h (2 Bft) W 270 9,7 C 18,6 km/h (3 Bft)
16.05.2015 16:25 17,5 C 22,8 C 62 % 1021,9 hPa 0,0 mm 8,8 km/h (2 Bft) N-NW 337 10,1 C 12,4 km/h (3 Bft)
16.05.2015 16:30 16,9 C 20,9 C 62 % 1021,9 hPa 0,0 mm 9,8 km/h (2 Bft) W-NW 292 9,6 C 8,8 km/h (2 Bft)
16.05.2015 16:35 16,6 C 19,2 C 62 % 1022,2 hPa 0,0 mm 9,8 km/h (2 Bft) W 270 9,3 C 13,5 km/h (3 Bft)
16.05.2015 16:40 16,7 C 19,4 C 63 % 1022,2 hPa 0,0 mm 9,3 km/h (2 Bft) W-SW 247 9,6 C 8,0 km/h (2 Bft)
16.05.2015 16:45 16,7 C 19,6 C 62 % 1022,2 hPa 0,0 mm 8,8 km/h (2 Bft) W-NW 292 9,4 C 11,1 km/h (2 Bft)
16.05.2015 16:50 16,8 C 19,1 C 64 % 1022,2 hPa 0,0 mm 7,5 km/h (2 Bft) W 270 10,0 C 6,7 km/h (2 Bft)
16.05.2015 16:55 16,8 C 18,9 C 63 % 1022,1 hPa 0,0 mm 7,3 km/h (2 Bft) N-NW 337 9,7 C 6,5 km/h (2 Bft)
16.05.2015 17:00 16,7 C 18,2 C 63 % 1022,1 hPa 0,0 mm 8,5 km/h (2 Bft) N-NW 337 9,6 C 10,4 km/h (2 Bft)
16.05.2015 17:05 16,7 C 18,0 C 64 % 1022,1 hPa 0,0 mm 8,8 km/h (2 Bft) W 270 9,9 C 12,9 km/h (3 Bft)
16.05.2015 17:10 16,7 C 18,1 C 64 % 1022,1 hPa 0,0 mm 7,3 km/h (2 Bft) W 270 9,9 C 8,0 km/h (2 Bft)
16.05.2015 17:15 16,6 C 17,9 C 63 % 1022,1 hPa 0,0 mm 7,0 km/h (2 Bft) W 270 9,5 C 6,2 km/h (2 Bft)
16.05.2015 17:20 16,7 C 17,9 C 63 % 1022,1 hPa 0,0 mm 9,8 km/h (2 Bft) W 270 9,6 C 12,9 km/h (3 Bft)
16.05.2015 17:25 16,7 C 18,0 C 63 % 1022,1 hPa 0,0 mm 10,1 km/h (2 Bft) N-NW 337 9,6 C 9,3 km/h (2 Bft)
16.05.2015 17:30 16,6 C 17,9 C 64 % 1022,1 hPa 0,0 mm 8,0 km/h (2 Bft) W-NW 292 9,8 C 5,4 km/h (1 Bft)
16.05.2015 17:35 16,7 C 18,2 C 64 % 1022,3 hPa 0,0 mm 7,5 km/h (2 Bft) NW 315 9,9 C 7,0 km/h (2 Bft)
16.05.2015 17:40 16,7 C 17,9 C 64 % 1022,3 hPa 0,0 mm 7,3 km/h (2 Bft) W-NW 292 9,9 C 11,9 km/h (2 Bft)
16.05.2015 17:45 16,4 C 17,5 C 64 % 1022,3 hPa 0,0 mm 8,3 km/h (2 Bft) W-SW 247 9,6 C 9,3 km/h (2 Bft)
16.05.2015 17:50 16,2 C 17,2 C 64 % 1022,3 hPa 0,0 mm 10,4 km/h (2 Bft) N-NW 337 9,4 C 11,7 km/h (2 Bft)
16.05.2015 17:55 16,4 C 17,6 C 65 % 1022,1 hPa 0,0 mm 9,1 km/h (2 Bft) W 270 9,8 C 6,7 km/h (2 Bft)
16.05.2015 18:00 16,5 C 17,9 C 63 % 1022,1 hPa 0,0 mm 9,1 km/h (2 Bft) NW 315 9,4 C 13,5 km/h (3 Bft)
16.05.2015 18:05 16,5 C 17,9 C 63 % 1022,1 hPa 0,0 mm 9,3 km/h (2 Bft) W 270 9,4 C 8,5 km/h (2 Bft)
16.05.2015 18:10 16,4 C 17,7 C 63 % 1022,1 hPa 0,0 mm 9,3 km/h (2 Bft) W 270 9,3 C 10,6 km/h (2 Bft)
16.05.2015 18:15 16,1 C 17,3 C 62 % 1022,4 hPa 0,0 mm 9,3 km/h (2 Bft) W-NW 292 8,8 C 19,7 km/h (3 Bft)
16.05.2015 18:20 15,8 C 16,8 C 63 % 1022,4 hPa 0,0 mm 9,8 km/h (2 Bft) W 270 8,8 C 28,2 km/h (4 Bft)
16.05.2015 18:25 15,8 C 16,6 C 63 % 1022,4 hPa 0,0 mm 9,6 km/h (2 Bft) NW 315 8,8 C 14,2 km/h (3 Bft)
16.05.2015 18:30 15,8 C 16,7 C 64 % 1022,4 hPa 0,0 mm 8,0 km/h (2 Bft) NW 315 9,0 C 11,1 km/h (2 Bft)
16.05.2015 18:35 15,9 C 16,7 C 64 % 1022,4 hPa 0,0 mm 7,8 km/h (2 Bft) W-NW 292 9,1 C 6,0 km/h (2 Bft)
16.05.2015 18:40 16,1 C 17,2 C 61 % 1022,4 hPa 0,0 mm 9,6 km/h (2 Bft) W-NW 292 8,6 C 12,4 km/h (3 Bft)
16.05.2015 18:45 16,2 C 17,4 C 61 % 1022,4 hPa 0,0 mm 10,1 km/h (2 Bft) NW 315 8,7 C 14,2 km/h (3 Bft)
16.05.2015 18:50 16,1 C 17,5 C 60 % 1022,4 hPa 0,0 mm 9,3 km/h (2 Bft) O-SO 112 8,3 C 6,5 km/h (2 Bft)
16.05.2015 18:55 15,9 C 17,8 C 59 % 1022,3 hPa 0,0 mm 10,1 km/h (2 Bft) W 270 7,9 C 7,3 km/h (2 Bft)
16.05.2015 19:00 15,6 C 16,9 C 60 % 1022,3 hPa 0,0 mm 8,0 km/h (2 Bft) SW 225 7,9 C 6,0 km/h (2 Bft)
16.05.2015 19:05 15,7 C 17,0 C 59 % 1022,3 hPa 0,0 mm 7,3 km/h (2 Bft) W-NW 292 7,7 C 3,1 km/h (1 Bft)
16.05.2015 19:10 15,8 C 17,9 C 59 % 1022,3 hPa 0,0 mm 5,7 km/h (1 Bft) W-NW 292 7,8 C 7,5 km/h (2 Bft)
16.05.2015 19:15 15,7 C 17,9 C 59 % 1022,5 hPa 0,0 mm 4,1 km/h (1 Bft) NW 315 7,7 C 10,9 km/h (2 Bft)
16.05.2015 19:20 15,7 C 17,5 C 59 % 1022,5 hPa 0,0 mm 4,4 km/h (1 Bft) NW 315 7,7 C 6,0 km/h (2 Bft)
16.05.2015 19:25 15,7 C 17,9 C 59 % 1022,5 hPa 0,0 mm 4,9 km/h (1 Bft) W-SW 247 7,7 C 0,0 km/h (0 Bft)
16.05.2015 19:30 15,5 C 17,5 C 59 % 1022,5 hPa 0,0 mm 3,9 km/h (1 Bft) SW 225 7,5 C 2,6 km/h (1 Bft)
16.05.2015 19:35 15,4 C 17,2 C 59 % 1022,2 hPa 0,0 mm 2,1 km/h (1 Bft) W-NW 292 7,4 C 8,8 km/h (2 Bft)
16.05.2015 19:40 15,0 C 16,4 C 59 % 1022,2 hPa 0,0 mm 2,3 km/h (1 Bft) W-SW 247 7,1 C 2,8 km/h (1 Bft)
16.05.2015 19:45 14,7 C 15,8 C 60 % 1022,2 hPa 0,0 mm 2,8 km/h (1 Bft) W-NW 292 7,0 C 0,0 km/h (0 Bft)
16.05.2015 19:50 14,3 C 15,1 C 61 % 1022,2 hPa 0,0 mm 1,8 km/h (1 Bft) W-SW 247 6,9 C 3,1 km/h (1 Bft)
16.05.2015 19:55 14,1 C 14,7 C 62 % 1022,3 hPa 0,0 mm 1,6 km/h (1 Bft) S-SW 202 6,9 C 3,6 km/h (1 Bft)
16.05.2015 20:00 13,9 C 14,2 C 62 % 1022,3 hPa 0,0 mm 2,3 km/h (1 Bft) S 180 6,7 C 3,6 km/h (1 Bft)
16.05.2015 20:05 13,7 C 14,0 C 63 % 1022,3 hPa 0,0 mm 3,1 km/h (1 Bft) S 180 6,8 C 4,7 km/h (1 Bft)
16.05.2015 20:10 13,7 C 13,8 C 65 % 1022,3 hPa 0,0 mm 4,1 km/h (1 Bft) S 180 7,2 C 4,4 km/h (1 Bft)
16.05.2015 20:15 13,6 C 13,7 C 65 % 1022,3 hPa 0,0 mm 4,7 km/h (1 Bft) S 180 7,1 C 6,2 km/h (2 Bft)
16.05.2015 20:20 13,5 C 13,6 C 66 % 1022,3 hPa 0,0 mm 4,9 km/h (1 Bft) S 180 7,3 C 6,0 km/h (2 Bft)
16.05.2015 20:25 13,5 C 13,6 C 65 % 1022,3 hPa 0,0 mm 5,4 km/h (1 Bft) S 180 7,1 C 8,5 km/h (2 Bft)
16.05.2015 20:30 13,3 C 13,5 C 64 % 1022,3 hPa 0,0 mm 6,0 km/h (2 Bft) S-SW 202 6,6 C 5,4 km/h (1 Bft)
16.05.2015 20:35 13,2 C 13,4 C 64 % 1022,3 hPa 0,0 mm 6,0 km/h (2 Bft) SW 225 6,5 C 7,3 km/h (2 Bft)
16.05.2015 20:40 13,1 C 13,2 C 64 % 1022,3 hPa 0,0 mm 6,0 km/h (2 Bft) SW 225 6,4 C 6,7 km/h (2 Bft)
16.05.2015 20:45 13,2 C 13,2 C 64 % 1022,3 hPa 0,0 mm 6,7 km/h (2 Bft) W-SW 247 6,5 C 7,8 km/h (2 Bft)
16.05.2015 20:50 13,2 C 13,2 C 63 % 1022,3 hPa 0,0 mm 6,2 km/h (2 Bft) SW 225 6,3 C 5,2 km/h (1 Bft)
16.05.2015 20:55 13,1 C 13,2 C 63 % 1022,6 hPa 0,0 mm 5,4 km/h (1 Bft) S-SW 202 6,2 C 7,5 km/h (2 Bft)
16.05.2015 21:00 13,1 C 13,1 C 63 % 1022,6 hPa 0,0 mm 5,4 km/h (1 Bft) S 180 6,2 C 4,7 km/h (1 Bft)
16.05.2015 21:05 12,9 C 12,9 C 64 % 1022,6 hPa 0,0 mm 4,9 km/h (1 Bft) S 180 6,3 C 6,2 km/h (2 Bft)
16.05.2015 21:10 13,0 C 13,0 C 64 % 1022,6 hPa 0,0 mm 5,2 km/h (1 Bft) S-SW 202 6,4 C 4,4 km/h (1 Bft)
16.05.2015 21:15 12,9 C 12,9 C 64 % 1022,6 hPa 0,0 mm 5,4 km/h (1 Bft) SW 225 6,3 C 7,0 km/h (2 Bft)
16.05.2015 21:20 13,0 C 12,9 C 63 % 1022,6 hPa 0,0 mm 5,7 km/h (1 Bft) S-SW 202 6,1 C 6,5 km/h (2 Bft)
16.05.2015 21:25 13,0 C 12,9 C 63 % 1022,6 hPa 0,0 mm 6,5 km/h (2 Bft) N-NO 22 6,1 C 7,8 km/h (2 Bft)
16.05.2015 21:30 12,9 C 12,9 C 63 % 1022,6 hPa 0,0 mm 6,2 km/h (2 Bft) S-SW 202 6,0 C 7,3 km/h (2 Bft)
16.05.2015 21:35 12,8 C 12,8 C 64 % 1023,1 hPa 0,0 mm 5,7 km/h (1 Bft) S-SW 202 6,2 C 4,1 km/h (1 Bft)
16.05.2015 21:40 12,8 C 12,8 C 64 % 1023,1 hPa 0,0 mm 5,2 km/h (1 Bft) SW 225 6,2 C 4,9 km/h (1 Bft)
16.05.2015 21:45 12,6 C 12,6 C 64 % 1023,1 hPa 0,0 mm 4,9 km/h (1 Bft) SW 225 6,0 C 6,2 km/h (2 Bft)
16.05.2015 21:50 12,4 C 12,4 C 65 % 1023,1 hPa 0,0 mm 5,2 km/h (1 Bft) S-SW 202 6,0 C 6,5 km/h (2 Bft)
16.05.2015 21:55 12,3 C 12,2 C 65 % 1023,2 hPa 0,0 mm 5,4 km/h (1 Bft) SW 225 5,9 C 9,1 km/h (2 Bft)
16.05.2015 22:00 12,2 C 12,1 C 65 % 1023,2 hPa 0,0 mm 6,2 km/h (2 Bft) SW 225 5,8 C 9,3 km/h (2 Bft)
16.05.2015 22:05 12,1 C 12,0 C 65 % 1023,2 hPa 0,0 mm 7,3 km/h (2 Bft) W-SW 247 5,7 C 10,1 km/h (2 Bft)
16.05.2015 22:10 12,1 C 12,0 C 65 % 1023,2 hPa 0,0 mm 8,0 km/h (2 Bft) S 180 5,7 C 8,3 km/h (2 Bft)
16.05.2015 22:15 12,0 C 11,9 C 65 % 1023,4 hPa 0,0 mm 7,5 km/h (2 Bft) SW 225 5,6 C 15,3 km/h (3 Bft)
16.05.2015 22:20 11,9 C 11,8 C 65 % 1023,4 hPa 0,0 mm 7,0 km/h (2 Bft) SW 225 5,5 C 8,3 km/h (2 Bft)
16.05.2015 22:25 12,0 C 11,8 C 65 % 1023,4 hPa 0,0 mm 7,3 km/h (2 Bft) NW 315 5,6 C 7,0 km/h (2 Bft)
16.05.2015 22:30 11,9 C 11,8 C 65 % 1023,4 hPa 0,0 mm 7,3 km/h (2 Bft) SW 225 5,5 C 9,3 km/h (2 Bft)
16.05.2015 22:35 11,8 C 11,7 C 65 % 1023,1 hPa 0,0 mm 6,7 km/h (2 Bft) SW 225 5,4 C 10,1 km/h (2 Bft)
16.05.2015 22:40 11,8 C 11,7 C 65 % 1023,1 hPa 0,0 mm 6,7 km/h (2 Bft) S 180 5,4 C 7,5 km/h (2 Bft)
16.05.2015 22:45 11,8 C 11,7 C 66 % 1023,1 hPa 0,0 mm 6,0 km/h (2 Bft) W-SW 247 5,7 C 5,7 km/h (1 Bft)
16.05.2015 22:50 11,8 C 11,7 C 66 % 1023,1 hPa 0,0 mm 4,4 km/h (1 Bft) S 180 5,7 C 4,1 km/h (1 Bft)
16.05.2015 22:55 11,8 C 11,7 C 66 % 1023,7 hPa 0,0 mm 3,6 km/h (1 Bft) W-SW 247 5,7 C 4,4 km/h (1 Bft)
16.05.2015 23:00 11,8 C 11,7 C 66 % 1023,7 hPa 0,0 mm 3,1 km/h (1 Bft) W-SW 247 5,7 C 4,9 km/h (1 Bft)
16.05.2015 23:05 11,9 C 11,8 C 67 % 1023,7 hPa 0,0 mm 3,9 km/h (1 Bft) SW 225 6,0 C 5,2 km/h (1 Bft)
16.05.2015 23:10 12,0 C 11,9 C 67 % 1023,7 hPa 0,0 mm 5,2 km/h (1 Bft) SW 225 6,1 C 5,2 km/h (1 Bft)
16.05.2015 23:15 11,9 C 11,8 C 67 % 1023,4 hPa 0,0 mm 6,0 km/h (2 Bft) S-SW 202 6,0 C 9,3 km/h (2 Bft)
16.05.2015 23:20 11,9 C 11,8 C 67 % 1023,4 hPa 0,0 mm 6,0 km/h (2 Bft) S-SW 202 6,0 C 8,3 km/h (2 Bft)
16.05.2015 23:25 11,8 C 11,7 C 68 % 1023,4 hPa 0,0 mm 6,0 km/h (2 Bft) S 180 6,1 C 4,7 km/h (1 Bft)
16.05.2015 23:30 11,9 C 11,8 C 68 % 1023,4 hPa 0,0 mm 5,4 km/h (1 Bft) SW 225 6,2 C 4,9 km/h (1 Bft)
16.05.2015 23:35 11,9 C 11,8 C 68 % 1023,5 hPa 0,0 mm 4,9 km/h (1 Bft) SW 225 6,2 C 6,7 km/h (2 Bft)
16.05.2015 23:40 12,1 C 12,0 C 68 % 1023,5 hPa 0,0 mm 4,9 km/h (1 Bft) W-NW 292 6,4 C 9,3 km/h (2 Bft)
16.05.2015 23:45 12,3 C 12,2 C 68 % 1023,5 hPa 0,0 mm 6,0 km/h (2 Bft) S-SW 202 6,6 C 10,9 km/h (2 Bft)
16.05.2015 23:50 12,2 C 12,1 C 67 % 1023,5 hPa 0,0 mm 5,2 km/h (1 Bft) SW 225 6,3 C 0,0 km/h (0 Bft)
16.05.2015 23:55 12,1 C 12,1 C 67 % 1023,4 hPa 0,0 mm 3,4 km/h (1 Bft) W-SW 247 6,2 C 4,7 km/h (1 Bft)
_ Min-Zeit 06:25 05:25 19:40 00:10 - 10:35 - - 22:40 23:50
Minimum _ 9,8 C 9,7 C 59 % 1017,3 hPa - 0,0 km/h (0 Bft) - - 5,4 C 0,0 km/h (0 Bft)
_ Max-Zeit 15:30 13:35 03:45 23:10 23:55 17:50 - - 14:45 18:20
Maximum _ 18,6 C 23,9 C 92 % 1023,7 hPa 0,0 mm 10,4 km/h
N-NW (2 Bft)
- - 11,5 C 28,2 km/h
W (4 Bft)
Durchschnitt _ 12,9 C 14,3 C 77 % 1020,9 hPa #0,0 mm 3,4 km/h (1 Bft) W-NW - 8,7 C 4,5 km/h (1 Bft)